This demonstration page uses our WeatherBlox Daily Observations layout. Learn more.

Hourly Observations for August 12, 2019

Temp ( °F °C ) Dew Point ( °F °C ) Humidity (%) Winds ( mph kmh ) Pressure ( in mb ) Visibility ( mi km ) Precip ( " mm )
12:15 am 00:15 Clear 68 20 61 16 78 78 Calm 30.06 1018 10 16.09344 0 0
12:35 am 00:35 Clear 64 18 61 16 88 88 Calm 30.06 1018 10 16.09344 0 0
12:55 am 00:55 Clear 64 18 61 16 88 88 Calm 30.06 1018 10 16.09344 0 0
1:15 am 01:15 Clear 63 17 61 16 94 94 NW 3 6 30.06 1018 10 16.09344 0 0
1:35 am 01:35 Clear 63 17 61 16 94 94 Calm 30.06 1018 10 16.09344 0 0
1:55 am 01:55 Clear 61 16 61 16 100 100 Calm 30.06 1018 10 16.09344 0 0
2:15 am 02:15 Clear 63 17 61 16 94 94 Calm 30.06 1018 10 16.09344 0 0
2:35 am 02:35 Clear 61 16 59 15 94 94 Calm 30.06 1018 10 16.09344 0 0
2:55 am 02:55 Clear 61 16 59 15 94 94 Calm 30.06 1018 10 16.09344 0 0
3:15 am 03:15 Clear 63 17 59 15 88 88 Calm 30.06 1018 10 16.09344 0 0
3:35 am 03:35 Clear 61 16 59 15 94 94 Calm 30.06 1018 10 16.09344 0 0
3:55 am 03:55 Clear 61 16 59 15 94 94 Calm 30.06 1018 10 16.09344 0 0
4:15 am 04:15 Clear 61 16 59 15 94 94 Calm 30.03 1017 10 16.09344 0 0
4:35 am 04:35 Clear 61 16 59 15 94 94 Calm 30.03 1017 10 16.09344 0 0
4:55 am 04:55 Clear 61 16 59 15 94 94 Calm 30.03 1017 10 16.09344 0 0
5:15 am 05:15 Clear 61 16 59 15 94 94 Calm 30.03 1017 10 16.09344 0 0
5:35 am 05:35 Clear 61 16 59 15 94 94 Calm 30.03 1017 10 16.09344 0 0
5:55 am 05:55 Clear 61 16 59 15 94 94 Calm 30.03 1017 10 16.09344 0 0
6:15 am 06:15 Clear 59 15 59 15 100 100 Calm 30.03 1017 10 16.09344 0 0
6:35 am 06:35 Sunny 59 15 59 15 100 100 Calm 30.03 1017 10 16.09344 0 0
6:55 am 06:55 Sunny 61 16 59 15 94 94 Calm 30.03 1017 10 16.09344 0 0
7:15 am 07:15 Sunny 61 16 61 16 100 100 Calm 30.06 1018 10 16.09344 0 0
7:35 am 07:35 Sunny 63 17 61 16 94 94 Calm 30.06 1018 10 16.09344 0 0
7:55 am 07:55 Sunny 64 18 61 16 88 88 Calm 30.06 1018 10 16.09344 0 0
8:15 am 08:15 Sunny 68 20 61 16 78 78 Calm 30.03 1017 10 16.09344 0 0
8:35 am 08:35 Sunny 70 21 63 17 78 78 Calm 30.06 1018 10 16.09344 0 0
8:55 am 08:55 Sunny 70 21 63 17 78 78 Calm 30.06 1018 10 16.09344 0 0
9:15 am 09:15 Sunny 72 22 63 17 73 73 Calm 30.06 1018 10 16.09344 0 0
9:35 am 09:35 Sunny 75 24 63 17 65 65 Calm 30.06 1018 10 16.09344 0 0
9:55 am 09:55 Sunny 77 25 64 18 65 65 Calm 30.03 1017 10 16.09344 0 0
10:15 am 10:15 Sunny 79 26 64 18 61 61 E 3 6 30.03 1017 10 16.09344 0 0
10:35 am 10:35 Sunny 81 27 64 18 58 58 Calm 30.03 1017 10 16.09344 0 0
10:55 am 10:55 Sunny 81 27 64 18 58 58 Calm 30.03 1017 N/A 0 0
11:15 am 11:15 Sunny 82 28 64 18 55 55 WNW 3 6 30.03 1017 N/A 0 0
11:35 am 11:35 Sunny 84 29 64 18 51 51 SW 3 6 30.03 1017 N/A 0 0
11:55 am 11:55 Sunny 86 30 64 18 49 49 WSW 8 13 30.03 1017 N/A 0 0
12:15 pm 12:15 Sunny 86 30 64 18 49 49 WSW 3 6 30 1016 10 16.09344 0 0
12:35 pm 12:35 Sunny 88 31 64 18 46 46 WSW 7 11 29.97 1015 10 16.09344 0 0
12:55 pm 12:55 Sunny 88 31 64 18 46 46 S 13 20 29.94 1014 10 16.09344 0 0
1:15 pm 13:15 Sunny 90 32 64 18 43 43 SSW 10 17 29.94 1014 10 16.09344 0 0
1:35 pm 13:35 Sunny 90 32 64 18 43 43 WSW 3 6 29.94 1014 10 16.09344 0 0
1:55 pm 13:55 Sunny 91 33 64 18 41 41 WSW 3 6 29.94 1014 10 16.09344 0 0
2:15 pm 14:15 Sunny 91 33 64 18 41 41 W 13 20 29.94 1014 N/A 0 0
2:35 pm 14:35 Sunny 91 33 64 18 41 41 W 10 17 29.94 1014 10 16.09344 0 0
2:55 pm 14:55 Sunny 91 33 64 18 41 41 WSW 6 9 29.91 1013 10 16.09344 0 0
3:15 pm 15:15 Sunny 91 33 66 19 44 44 W 7 11 29.91 1013 N/A 0 0
3:35 pm 15:35 Sunny 91 33 64 18 41 41 WSW 12 19 29.91 1013 N/A 0 0
3:55 pm 15:55 Sunny 93 34 64 18 39 39 WSW 7 11 29.91 1013 N/A 0 0
4:15 pm 16:15 Sunny 91 33 64 18 41 41 W 7 11 29.88 1012 N/A 0 0
4:35 pm 16:35 Partly Cloudy 93 34 64 18 39 39 SW 8 13 29.88 1012 N/A 0 0
4:55 pm 16:55 Partly Cloudy 91 33 64 18 41 41 SSW 7 11 29.88 1012 N/A 0 0
5:15 pm 17:15 Sunny 93 34 64 18 39 39 SSW 9 15 29.88 1012 N/A 0 0
5:35 pm 17:35 Sunny 91 33 64 18 41 41 SSW 8 13 29.88 1012 N/A 0 0
5:55 pm 17:55 Sunny 91 33 64 18 41 41 WSW 5 7 29.88 1012 N/A 0 0
6:15 pm 18:15 Sunny 90 32 66 19 46 46 SW 6 9 29.85 1011 N/A 0 0
6:35 pm 18:35 Sunny 90 32 68 20 49 49 SW 5 7 29.85 1011 N/A 0 0
6:55 pm 18:55 Sunny 90 32 68 20 49 49 SW 7 11 29.85 1011 10 16.09344 0 0
7:15 pm 19:15 Sunny 90 32 68 20 49 49 SW 6 9 29.85 1011 10 16.09344 0 0
7:35 pm 19:35 Sunny 88 31 68 20 52 52 SSW 3 6 29.85 1011 10 16.09344 0 0
7:55 pm 19:55 Sunny 88 31 68 20 52 52 SW 3 6 29.85 1011 10 16.09344 0 0
8:15 pm 20:15 Clear 86 30 68 20 55 55 S 6 9 29.85 1011 10 16.09344 0 0
8:35 pm 20:35 Clear 86 30 68 20 55 55 S 7 11 29.85 1011 10 16.09344 0 0
8:55 pm 20:55 Clear 86 30 70 21 59 59 S 7 11 29.85 1011 10 16.09344 0 0
9:15 pm 21:15 Clear 84 29 70 21 62 62 S 7 11 29.88 1012 10 16.09344 0 0
9:35 pm 21:35 Clear 84 29 70 21 62 62 S 6 9 29.88 1012 10 16.09344 0 0
9:55 pm 21:55 Clear 82 28 70 21 66 66 S 6 9 29.91 1013 10 16.09344 0 0
10:15 pm 22:15 Clear 82 28 70 21 66 66 S 7 11 29.91 1013 10 16.09344 0 0
10:35 pm 22:35 Clear 82 28 70 21 66 66 S 8 13 29.88 1012 10 16.09344 0 0
10:55 pm 22:55 Clear 82 28 70 21 66 66 S 8 13 29.88 1012 10 16.09344 0 0
11:15 pm 23:15 Clear 81 27 70 21 70 70 SSW 7 11 29.88 1012 10 16.09344 0 0
11:35 pm 23:35 Clear 81 27 70 21 70 70 SSW 7 11 29.88 1012 10 16.09344 0 0
11:55 pm 23:55 Clear 81 27 70 21 70 70 SSW 7 11 29.88 1012 10 16.09344 0 0

Powered by AerisWeather